Flag for U.S.A. Weather past 2 weeks in Winston-Salem, North Carolina, U.S.A.

Now
29 °F

Clear.


Feels Like: 16 °F
Forecast: 25 / 45 °F
Wind: 18 mph from Northwest

Location: Smith Reynolds Airport

Current Time: Jan 28, 2015 at 12:11:52 AM

Latest Report: Jan 27, 2015 at 11:54 PM


Visibility: 10 mi

Pressure: 30.04 "Hg

Humidity: 39%

Dew point: 7 °F

Location of Winston-SalemLocation

Historic Weather in Winston-Salem — Graph

°F

Winston-Salem temperature yesterday

Maximum temperature yesterday: 44 °F (at 2:54 PM)
Minimum temperature yesterday: 28 °F (at 5:54 AM)
Average temperature yesterday: 35 °F

Past Weeks' High & Low Weather Summary

 TemperatureHumidityPressure
High65 °F (Jan 20, 2:54 PM)100% (Jan 15, 9:54 AM)30.43 "Hg (Jan 15, 9:54 AM)
Low25 °F (Jan 15, 5:54 AM)15% (Jan 27, 8:54 PM)29.57 "Hg (Jan 24, 8:02 AM)
Average41 °F63%30.03 "Hg
* Reported Jan 12 10:54 PM — Jan 27 10:54 PM, Winston-Salem, Weather by CustomWeather, © 2014

Note: Actual official high and low records may vary slightly from our data, if they occured in-between our weather recording intervals... More about our weather records

Advertising

Winston-Salem weather history for previous 24 hours

 ConditionsComfort  
Time TempWeatherWind HumidityBarometerVisibility
10:54 PM
Jan 27
32 °FClear.17 mph26%30.01 "Hg10 mi
9:54 PM33 °FClear.17 mph18%29.99 "Hg10 mi
8:54 PM34 °FClear.15 mph15%29.98 "Hg10 mi
7:54 PM36 °FClear.No wind23%29.96 "Hg10 mi
6:54 PM37 °FClear.7 mph24%29.93 "Hg10 mi
5:54 PM39 °FClear.9 mph21%29.90 "Hg10 mi
4:54 PM42 °FSunny.10 mph19%29.86 "Hg10 mi
3:54 PM44 °FSunny.13 mph18%29.84 "Hg10 mi
2:54 PM44 °FSunny.15 mph19%29.83 "Hg10 mi
1:54 PM42 °FSunny.10 mph22%29.82 "Hg10 mi
12:54 PM40 °FSunny.9 mph28%29.83 "Hg10 mi
11:54 AM39 °FSunny.10 mph28%29.85 "Hg10 mi
10:54 AM37 °FSunny.12 mph34%29.86 "Hg10 mi
9:54 AM34 °FSunny.17 mph42%29.85 "Hg10 mi
8:54 AM31 °FSunny.13 mph47%29.85 "Hg10 mi
7:54 AM29 °FSunny.10 mph51%29.83 "Hg10 mi
6:54 AM28 °FClear.8 mph56%29.81 "Hg10 mi
5:54 AM28 °FClear.3 mph58%29.79 "Hg10 mi
4:54 AM29 °FClear.8 mph61%29.78 "Hg10 mi
3:54 AM29 °FClear.3 mph64%29.76 "Hg10 mi
2:54 AM31 °FClear.8 mph61%29.75 "Hg10 mi
1:54 AM33 °FPassing clouds.12 mph56%29.74 "Hg10 mi
12:54 AM34 °FPassing clouds.13 mph56%29.74 "Hg10 mi
Weather by CustomWeather, © 2014

See weather overviewHow to use our weather pages